Time,TemperatureF,DewpointF,PressureIn,WindDirection,WindDirectionDegrees,WindSpeedMPH,WindSpeedGustMPH,Humidity,HourlyPrecipIn,Conditions,Clouds,dailyrainin,SoftwareType,DateUTC
2013-01-14 00:14:00,46.5,46.0,29.95,ENE,59,0.0,-999.0,96,-99.99,,,0.00,weatherlink.com 1.10,2013-01-14 05:14:00,
2013-01-14 00:29:00,46.5,46.0,29.95,ENE,59,0.0,-999.0,96,-99.99,,,0.00,weatherlink.com 1.10,2013-01-14 05:29:00,
2013-01-14 00:44:00,46.5,46.0,29.95,ENE,59,0.0,-999.0,96,-99.99,,,0.00,weatherlink.com 1.10,2013-01-14 05:44:00,
2013-01-14 00:59:00,46.5,46.0,29.96,ENE,61,0.0,-999.0,96,-99.99,,,0.00,weatherlink.com 1.10,2013-01-14 05:59:00,
2013-01-14 01:14:00,46.6,46.0,29.97,ENE,61,0.0,-999.0,96,-99.99,,,0.00,weatherlink.com 1.10,2013-01-14 06:14:00,
2013-01-14 01:29:00,46.6,46.0,29.98,ENE,61,0.0,-999.0,96,-99.99,,,0.00,weatherlink.com 1.10,2013-01-14 06:29:00,
2013-01-14 01:45:00,46.5,46.0,29.99,ENE,61,0.0,-999.0,96,-99.99,,,0.00,weatherlink.com 1.10,2013-01-14 06:45:00,
2013-01-14 02:00:00,46.5,46.0,30.00,ENE,61,0.0,-999.0,96,-99.99,,,0.00,weatherlink.com 1.10,2013-01-14 07:00:00,
2013-01-14 02:15:00,46.3,45.0,29.99,ENE,61,0.0,-999.0,96,-99.99,,,0.00,weatherlink.com 1.10,2013-01-14 07:15:00,
2013-01-14 02:30:00,46.4,45.0,29.97,ENE,61,0.0,-999.0,96,-99.99,,,0.00,weatherlink.com 1.10,2013-01-14 07:30:00,
2013-01-14 02:45:00,47.2,46.0,29.93,ENE,68,0.0,-999.0,96,-99.99,,,0.00,weatherlink.com 1.10,2013-01-14 07:45:00,
2013-01-14 03:00:00,48.0,47.0,29.88,WNW,288,3.0,-999.0,96,-99.99,,,0.00,weatherlink.com 1.10,2013-01-14 08:00:00,
2013-01-14 03:15:00,48.8,48.0,29.93,WNW,293,0.0,-999.0,96,-99.99,,,0.00,weatherlink.com 1.10,2013-01-14 08:15:00,
2013-01-14 03:30:00,48.5,48.0,29.95,WNW,293,0.0,-999.0,96,-99.99,,,0.00,weatherlink.com 1.10,2013-01-14 08:30:00,
2013-01-14 03:45:00,48.2,47.0,29.93,WNW,293,0.0,-999.0,96,-99.99,,,0.00,weatherlink.com 1.10,2013-01-14 08:45:00,
2013-01-14 04:00:00,47.9,47.0,29.94,WNW,293,2.0,-999.0,96,-99.99,,,0.00,weatherlink.com 1.10,2013-01-14 09:00:00,
2013-01-14 04:15:00,47.9,47.0,29.93,WNW,293,0.0,-999.0,96,-99.99,,,0.00,weatherlink.com 1.10,2013-01-14 09:15:00,
2013-01-14 04:30:00,47.7,47.0,29.94,WNW,293,0.0,-999.0,96,-99.99,,,0.00,weatherlink.com 1.10,2013-01-14 09:30:00,
2013-01-14 04:45:00,47.4,46.0,29.94,WNW,293,0.0,-999.0,96,-99.99,,,0.00,weatherlink.com 1.10,2013-01-14 09:45:00,
2013-01-14 05:00:00,47.0,46.0,29.94,WNW,293,0.0,-999.0,96,-99.99,,,0.00,weatherlink.com 1.10,2013-01-14 10:00:00,
2013-01-14 05:15:00,46.9,46.0,29.95,WNW,293,0.0,-999.0,96,-99.99,,,0.00,weatherlink.com 1.10,2013-01-14 10:15:00,
2013-01-14 05:30:00,46.8,46.0,29.97,WNW,293,0.0,-999.0,96,-99.99,,,0.00,weatherlink.com 1.10,2013-01-14 10:30:00,
2013-01-14 05:45:00,46.9,46.0,29.97,WNW,293,0.0,-999.0,96,-99.99,,,0.00,weatherlink.com 1.10,2013-01-14 10:45:00,
2013-01-14 06:00:00,46.8,46.0,29.99,WNW,293,0.0,-999.0,96,-99.99,,,0.00,weatherlink.com 1.10,2013-01-14 11:00:00,
2013-01-14 06:15:00,47.1,46.0,30.02,West,276,3.0,-999.0,96,-99.99,,,0.00,weatherlink.com 1.10,2013-01-14 11:15:00,
2013-01-14 06:30:00,47.2,46.0,30.02,WNW,300,2.0,-999.0,96,-99.99,,,0.00,weatherlink.com 1.10,2013-01-14 11:30:00,
2013-01-14 06:45:00,46.8,46.0,30.04,WSW,251,2.0,-999.0,96,-99.99,,,0.00,weatherlink.com 1.10,2013-01-14 11:45:00,
2013-01-14 07:00:00,46.6,46.0,30.05,WSW,251,0.0,-999.0,96,-99.99,,,0.00,weatherlink.com 1.10,2013-01-14 12:00:00,
2013-01-14 07:15:00,46.5,46.0,30.06,WSW,251,0.0,-999.0,96,-99.99,,,0.00,weatherlink.com 1.10,2013-01-14 12:15:00,
2013-01-14 07:30:00,46.4,45.0,30.06,WSW,251,0.0,-999.0,96,-99.99,,,0.00,weatherlink.com 1.10,2013-01-14 12:30:00,
2013-01-14 07:45:00,46.3,45.0,30.07,WSW,251,0.0,-999.0,96,-99.99,,,0.00,weatherlink.com 1.10,2013-01-14 12:45:00,
2013-01-14 08:00:00,46.2,45.0,30.08,WSW,251,0.0,-999.0,96,-99.99,,,0.00,weatherlink.com 1.10,2013-01-14 13:00:00,
2013-01-14 08:15:00,46.2,45.0,30.09,WSW,251,0.0,-999.0,96,-99.99,,,0.00,weatherlink.com 1.10,2013-01-14 13:15:00,
2013-01-14 08:30:00,46.2,45.0,30.11,WSW,251,0.0,-999.0,96,-99.99,,,0.00,weatherlink.com 1.10,2013-01-14 13:30:00,
2013-01-14 08:45:00,46.9,46.0,30.11,West,273,1.0,-999.0,96,-99.99,,,0.00,weatherlink.com 1.10,2013-01-14 13:45:00,
2013-01-14 09:00:00,47.1,46.0,30.12,West,273,3.0,-999.0,96,-99.99,,,0.00,weatherlink.com 1.10,2013-01-14 14:00:00,
2013-01-14 09:15:00,47.1,46.0,30.13,West,278,4.0,-999.0,95,-99.99,,,0.00,weatherlink.com 1.10,2013-01-14 14:15:00,
2013-01-14 09:30:00,47.2,45.0,30.16,West,279,3.0,-999.0,92,-99.99,,,0.00,weatherlink.com 1.10,2013-01-14 14:30:00,
2013-01-14 09:45:00,47.4,44.0,30.17,West,271,3.0,-999.0,88,-99.99,,,0.00,weatherlink.com 1.10,2013-01-14 14:45:00,
2013-01-14 10:00:00,47.6,43.0,30.18,West,276,5.0,-999.0,84,-99.99,,,0.00,weatherlink.com 1.10,2013-01-14 15:00:00,
2013-01-14 10:15:00,47.4,42.0,30.19,West,264,3.0,-999.0,80,-99.99,,,0.00,weatherlink.com 1.10,2013-01-14 15:15:00,
2013-01-14 10:30:00,47.7,42.0,30.20,West,277,5.0,-999.0,80,-99.99,,,0.00,weatherlink.com 1.10,2013-01-14 15:30:00,
2013-01-14 10:46:00,47.4,41.0,30.20,NNW,340,5.0,-999.0,77,-99.99,,,0.00,weatherlink.com 1.10,2013-01-14 15:46:00,
2013-01-14 11:01:00,47.5,40.0,30.20,WNW,298,4.0,-999.0,75,-99.99,,,0.00,weatherlink.com 1.10,2013-01-14 16:01:00,
2013-01-14 11:16:00,47.0,40.0,30.19,WSW,245,3.0,-999.0,76,-99.99,,,0.00,weatherlink.com 1.10,2013-01-14 16:16:00,
2013-01-14 11:31:00,47.0,40.0,30.18,SSW,212,4.0,-999.0,76,-99.99,,,0.00,weatherlink.com 1.10,2013-01-14 16:31:00,
2013-01-14 11:46:00,47.5,39.0,30.18,WNW,282,5.0,-999.0,73,-99.99,,,0.00,weatherlink.com 1.10,2013-01-14 16:46:00,
2013-01-14 12:00:00,47.8,40.0,30.18,NNW,331,4.0,-999.0,74,-99.99,,,0.00,weatherlink.com 1.10,2013-01-14 17:00:00,
2013-01-14 12:16:00,49.0,40.0,30.18,North,5,3.0,-999.0,71,-99.99,,,0.00,weatherlink.com 1.10,2013-01-14 17:16:00,
2013-01-14 12:32:00,50.5,41.0,30.18,NW,317,2.0,-999.0,69,-99.99,,,0.00,weatherlink.com 1.10,2013-01-14 17:32:00,
2013-01-14 12:46:00,50.3,39.0,30.17,NW,305,4.0,-999.0,66,-99.99,,,0.00,weatherlink.com 1.10,2013-01-14 17:46:00,
2013-01-14 13:02:00,49.7,38.0,30.17,WSW,246,3.0,-999.0,64,-99.99,,,0.00,weatherlink.com 1.10,2013-01-14 18:02:00,
2013-01-14 13:16:00,49.9,38.0,30.17,SW,218,3.0,-999.0,63,-99.99,,,0.00,weatherlink.com 1.10,2013-01-14 18:16:00,
2013-01-14 13:33:00,49.3,36.0,30.18,NW,308,5.0,-999.0,60,-99.99,,,0.00,weatherlink.com 1.10,2013-01-14 18:33:00,
2013-01-14 13:47:00,49.2,36.0,30.18,SSW,195,1.0,-999.0,61,-99.99,,,0.00,weatherlink.com 1.10,2013-01-14 18:47:00,
2013-01-14 14:02:00,49.1,34.0,30.17,West,259,7.0,-999.0,57,-99.99,,,0.00,weatherlink.com 1.10,2013-01-14 19:02:00,
2013-01-14 14:18:00,48.6,35.0,30.18,West,266,6.0,-999.0,59,-99.99,,,0.00,weatherlink.com 1.10,2013-01-14 19:18:00,
2013-01-14 14:33:00,48.1,34.0,30.18,NW,320,2.0,-999.0,59,-99.99,,,0.00,weatherlink.com 1.10,2013-01-14 19:33:00,
2013-01-14 14:48:00,48.0,34.0,30.19,WSW,248,3.0,-999.0,59,-99.99,,,0.00,weatherlink.com 1.10,2013-01-14 19:48:00,
2013-01-14 15:03:00,48.0,34.0,30.20,NW,308,1.0,-999.0,59,-99.99,,,0.00,weatherlink.com 1.10,2013-01-14 20:03:00,
2013-01-14 15:18:00,48.1,34.0,30.19,West,266,0.0,-999.0,58,-99.99,,,0.00,weatherlink.com 1.10,2013-01-14 20:18:00,
2013-01-14 15:33:00,48.0,34.0,30.19,NE,34,3.0,-999.0,59,-99.99,,,0.00,weatherlink.com 1.10,2013-01-14 20:33:00,
2013-01-14 15:48:00,47.8,34.0,30.18,NW,312,2.0,-999.0,60,-99.99,,,0.00,weatherlink.com 1.10,2013-01-14 20:48:00,
2013-01-14 16:04:00,47.5,34.0,30.17,West,279,0.0,-999.0,59,-99.99,,,0.00,weatherlink.com 1.10,2013-01-14 21:04:00,
2013-01-14 16:19:00,47.0,33.0,30.18,WNW,298,0.0,-999.0,59,-99.99,,,0.00,weatherlink.com 1.10,2013-01-14 21:19:00,
2013-01-14 16:33:00,46.6,33.0,30.17,WNW,298,1.0,-999.0,59,-99.99,,,0.00,weatherlink.com 1.10,2013-01-14 21:33:00,
2013-01-14 16:49:00,46.2,33.0,30.18,WNW,298,1.0,-999.0,60,-99.99,,,0.00,weatherlink.com 1.10,2013-01-14 21:49:00,
2013-01-14 17:04:00,45.7,33.0,30.19,WNW,298,0.0,-999.0,61,-99.99,,,0.00,weatherlink.com 1.10,2013-01-14 22:04:00,
2013-01-14 17:19:00,45.1,33.0,30.21,WNW,298,1.0,-999.0,62,-99.99,,,0.00,weatherlink.com 1.10,2013-01-14 22:19:00,
2013-01-14 17:35:00,44.8,32.0,30.22,WSW,257,0.0,-999.0,61,-99.99,,,0.00,weatherlink.com 1.10,2013-01-14 22:35:00,
2013-01-14 17:50:00,44.5,31.0,30.22,WNW,303,3.0,-999.0,60,-99.99,,,0.00,weatherlink.com 1.10,2013-01-14 22:50:00,
2013-01-14 18:06:00,44.4,30.0,30.23,WNW,293,0.0,-999.0,58,-99.99,,,0.00,weatherlink.com 1.10,2013-01-14 23:06:00,
2013-01-14 18:20:00,44.3,31.0,30.25,West,278,0.0,-999.0,59,-99.99,,,0.00,weatherlink.com 1.10,2013-01-14 23:20:00,
2013-01-14 18:36:00,44.0,30.0,30.27,NW,306,2.0,-999.0,58,-99.99,,,0.00,weatherlink.com 1.10,2013-01-14 23:36:00,
2013-01-14 18:50:00,43.8,30.0,30.27,West,276,2.0,-999.0,58,-99.99,,,0.00,weatherlink.com 1.10,2013-01-14 23:50:00,
2013-01-14 19:05:00,43.5,29.0,30.27,NW,317,0.0,-999.0,58,-99.99,,,0.00,weatherlink.com 1.10,2013-01-15 00:05:00,
2013-01-14 19:21:00,43.1,29.0,30.28,NE,36,2.0,-999.0,58,-99.99,,,0.00,weatherlink.com 1.10,2013-01-15 00:21:00,
2013-01-14 19:37:00,42.8,29.0,30.28,NNE,31,0.0,-999.0,58,-99.99,,,0.00,weatherlink.com 1.10,2013-01-15 00:37:00,
2013-01-14 19:51:00,42.5,28.0,30.27,NNE,31,0.0,-999.0,58,-99.99,,,0.00,weatherlink.com 1.10,2013-01-15 00:51:00,
2013-01-14 20:06:00,42.2,28.0,30.27,SE,126,0.0,-999.0,57,-99.99,,,0.00,weatherlink.com 1.10,2013-01-15 01:06:00,
2013-01-14 20:22:00,42.0,29.0,30.27,SE,127,0.0,-999.0,60,-99.99,,,0.00,weatherlink.com 1.10,2013-01-15 01:22:00,
2013-01-14 20:37:00,41.8,29.0,30.29,SE,127,0.0,-999.0,61,-99.99,,,0.00,weatherlink.com 1.10,2013-01-15 01:37:00,
2013-01-14 20:53:00,41.4,29.0,30.30,SE,127,0.0,-999.0,62,-99.99,,,0.00,weatherlink.com 1.10,2013-01-15 01:53:00,
2013-01-14 21:07:00,41.0,29.0,30.30,WSW,256,1.0,-999.0,62,-99.99,,,0.00,weatherlink.com 1.10,2013-01-15 02:07:00,
2013-01-14 21:23:00,40.8,29.0,30.30,WSW,256,0.0,-999.0,62,-99.99,,,0.00,weatherlink.com 1.10,2013-01-15 02:23:00,
2013-01-14 21:37:00,40.5,28.0,30.29,NE,36,0.0,-999.0,62,-99.99,,,0.00,weatherlink.com 1.10,2013-01-15 02:37:00,
2013-01-14 21:53:00,40.1,28.0,30.29,NNE,20,1.0,-999.0,63,-99.99,,,0.00,weatherlink.com 1.10,2013-01-15 02:53:00,
2013-01-14 22:08:00,39.7,28.0,30.30,West,270,1.0,-999.0,64,-99.99,,,0.00,weatherlink.com 1.10,2013-01-15 03:08:00,
2013-01-14 22:23:00,39.4,28.0,30.29,North,9,1.0,-999.0,64,-99.99,,,0.00,weatherlink.com 1.10,2013-01-15 03:23:00,
2013-01-14 22:38:00,39.1,28.0,30.29,North,360,0.0,-999.0,65,-99.99,,,0.00,weatherlink.com 1.10,2013-01-15 03:38:00,
2013-01-14 22:53:00,38.9,28.0,30.28,North,360,0.0,-999.0,66,-99.99,,,0.00,weatherlink.com 1.10,2013-01-15 03:53:00,
2013-01-14 23:08:00,38.8,29.0,30.27,North,360,0.0,-999.0,68,-99.99,,,0.00,weatherlink.com 1.10,2013-01-15 04:08:00,
2013-01-14 23:23:00,38.6,29.0,30.26,ENE,63,0.0,-999.0,69,-99.99,,,0.00,weatherlink.com 1.10,2013-01-15 04:23:00,
2013-01-14 23:38:00,38.5,30.0,30.29,NW,313,1.0,-999.0,71,-99.99,,,0.00,weatherlink.com 1.10,2013-01-15 04:38:00,
2013-01-14 23:53:00,38.2,30.0,30.30,NNW,332,1.0,-999.0,71,-99.99,,,0.00,weatherlink.com 1.10,2013-01-15 04:53:00,